| time (UTC) | temp C | wind direction | speed KPH | gust KPH | rain 1hr cm | rain 24hr cm | rain mn cm | humidity % | barometer mb |
| 20260508230037 | 20 | 165 | 0.0 | 1.6 | 0.00 | 0.00 | 0.00 | 48 | 1018.6 |
| 20260508224559 | 18 | 165 | 0.0 | 6.4 | 0.00 | 0.00 | 0.00 | 46 | 1018.6 |
| 20260508223035 | 18 | 187 | 0.0 | 9.7 | 0.00 | 0.00 | 0.00 | 45 | 1018.5 |
| 20260508221541 | 18 | 170 | 1.6 | 12.9 | 0.00 | 0.00 | 0.00 | 44 | 1018.1 |
| 20260508220034 | 18 | 180 | 1.6 | 14.5 | 0.00 | 0.00 | 0.00 | 45 | 1018.0 |
| 20260508214538 | 17 | 158 | 3.2 | 12.9 | 0.00 | 0.00 | 0.00 | 45 | 1018.0 |
| 20260508213034 | 17 | 170 | 0.0 | 6.4 | 0.00 | 0.00 | 0.00 | 49 | 1018.1 |
| 20260508211527 | 17 | 198 | 0.0 | 0.0 | 0.00 | 0.00 | 0.00 | 52 | 1017.9 |
| 20260508210027 | 17 | 175 | 0.0 | 4.8 | 0.00 | 0.00 | 0.00 | 53 | 1017.9 |
| 20260508204524 | 17 | 165 | 0.0 | 0.0 | 0.00 | 0.00 | 0.00 | 52 | 1017.4 |
| 20260508203020 | 17 | 175 | 0.0 | 0.0 | 0.00 | 0.00 | 0.00 | 53 | 1017.2 |
| 20260508201518 | 17 | 179 | 0.0 | 0.0 | 0.00 | 0.00 | 0.00 | 54 | 1017.1 |
| 20260508200030 | 17 | 193 | 0.0 | 0.0 | 0.00 | 0.00 | 0.00 | 56 | 1016.7 |
| 20260508194515 | 17 | 175 | 0.0 | 0.0 | 0.00 | 0.00 | 0.00 | 56 | 1016.5 |
| 20260508193011 | 17 | 151 | 0.0 | 0.0 | 0.00 | 0.00 | 0.00 | 58 | 1016.5 |
| 20260508191508 | 18 | 181 | 0.0 | 6.4 | 0.00 | 0.00 | 0.00 | 63 | 1016.5 |
| 20260508190011 | 18 | 158 | 0.0 | 3.2 | 0.00 | 0.00 | 0.00 | 66 | 1016.4 |
| 20260508184504 | 18 | 170 | 0.0 | 0.0 | 0.00 | 0.00 | 0.00 | 72 | 1016.4 |
| 20260508183002 | 18 | 159 | 0.0 | 4.8 | 0.00 | 0.00 | 0.00 | 72 | 1016.1 |
| 20260508181613 | 18 | 142 | 0.0 | 0.0 | 0.00 | 0.00 | 0.00 | 76 | 1016.2 |
| 20260508180101 | 18 | 175 | 0.0 | 0.0 | 0.00 | 0.00 | 0.00 | 75 | 1016.1 |
| 20260508174556 | 18 | 175 | 0.0 | 0.0 | 0.00 | 0.00 | 0.00 | 73 | 1016.2 |
| 20260508173102 | 19 | 179 | 0.0 | 0.0 | 0.00 | 0.00 | 0.00 | 72 | 1016.1 |
| 20260508171555 | 19 | 135 | 0.0 | 3.2 | 0.00 | 0.00 | 0.00 | 70 | 1016.1 |
| 20260508170050 | 19 | 170 | 0.0 | 3.2 | 0.00 | 0.00 | 0.00 | 70 | 1016.0 |
| 20260508164549 | 20 | 170 | 0.0 | 1.6 | 0.00 | 0.00 | 0.00 | 69 | 1016.2 |
| 20260508163049 | 19 | 155 | 0.0 | 0.0 | 0.00 | 0.00 | 0.00 | 71 | 1016.1 |
| 20260508161546 | 19 | 165 | 0.0 | 0.0 | 0.00 | 0.00 | 0.00 | 74 | 1016.1 |
| 20260508160044 | 19 | 186 | 0.0 | 4.8 | 0.00 | 0.00 | 0.00 | 75 | 1016.3 |
| 20260508154542 | 19 | 180 | 0.0 | 3.2 | 0.00 | 0.00 | 0.00 | 75 | 1016.4 |
| 20260508153040 | 19 | 165 | 0.0 | 0.0 | 0.00 | 0.00 | 0.00 | 77 | 1016.5 |
| 20260508151544 | 20 | 159 | 0.0 | 0.0 | 0.00 | 0.00 | 0.00 | 77 | 1016.4 |
| 20260508150041 | 20 | 170 | 0.0 | 0.0 | 0.00 | 0.00 | 0.00 | 76 | 1016.6 |
| 20260508144542 | 20 | 165 | 0.0 | 0.0 | 0.00 | 0.00 | 0.00 | 76 | 1016.7 |
| 20260508143037 | 20 | 152 | 0.0 | 0.0 | 0.00 | 0.00 | 0.00 | 75 | 1016.9 |
| 20260508141529 | 20 | 146 | 0.0 | 0.0 | 0.00 | 0.00 | 0.00 | 74 | 1016.8 |
| 20260508140036 | 20 | 150 | 0.0 | 0.0 | 0.00 | 0.00 | 0.00 | 74 | 1016.7 |
| 20260508134521 | 20 | 117 | 0.0 | 3.2 | 0.00 | 0.00 | 0.00 | 74 | 1016.8 |
| 20260508133019 | 20 | 146 | 0.0 | 0.0 | 0.00 | 0.00 | 0.00 | 75 | 1017.0 |
| 20260508131514 | 20 | 154 | 0.0 | 0.0 | 0.00 | 0.00 | 0.00 | 74 | 1016.9 |
| 20260508130011 | 20 | 158 | 0.0 | 0.0 | 0.00 | 0.00 | 0.00 | 73 | 1016.8 |
| 20260508124504 | 21 | 139 | 0.0 | 6.4 | 0.00 | 0.00 | 0.00 | 71 | 1017.0 |
| 20260508123059 | 21 | 165 | 0.0 | 0.0 | 0.00 | 0.00 | 0.00 | 70 | 1017.1 |
| 20260508121555 | 22 | 156 | 0.0 | 6.4 | 0.00 | 0.00 | 0.00 | 70 | 1017.0 |
| 20260508120050 | 22 | 170 | 0.0 | 6.4 | 0.00 | 0.00 | 0.00 | 67 | 1016.8 |
| 20260508114546 | 22 | 133 | 0.0 | 3.2 | 0.00 | 0.00 | 0.00 | 69 | 1016.8 |
| 20260508113109 | 22 | 127 | 0.0 | 8.0 | 0.00 | 0.00 | 0.00 | 72 | 1016.8 |
| 20260508111541 | 22 | 165 | 0.0 | 1.6 | 0.00 | 0.00 | 0.00 | 74 | 1016.9 |
| 20260508110036 | 22 | 91 | 0.0 | 0.0 | 0.00 | 0.00 | 0.00 | 75 | 1017.0 |
| 20260508104540 | 22 | 104 | 0.0 | 0.0 | 0.00 | 0.00 | 0.00 | 77 | 1016.8 |
| 20260508103027 | 22 | 125 | 0.0 | 0.0 | 0.00 | 0.00 | 0.00 | 77 | 1016.7 |
| 20260508101531 | 22 | 158 | 0.0 | 0.0 | 0.00 | 0.00 | 0.00 | 76 | 1016.5 |
| 20260508100025 | 22 | 161 | 0.0 | 0.0 | 0.00 | 0.00 | 0.00 | 77 | 1016.4 |
| 20260508094515 | 22 | 160 | 0.0 | 0.0 | 0.00 | 0.00 | 0.00 | 77 | 1016.2 |
| 20260508093013 | 22 | 97 | 0.0 | 0.0 | 0.00 | 0.00 | 0.00 | 77 | 1015.9 |
| 20260508091506 | 22 | 96 | 0.0 | 0.0 | 0.00 | 0.00 | 0.00 | 78 | 1015.7 |
| 20260508090002 | 22 | 83 | 0.0 | 0.0 | 0.00 | 0.00 | 0.00 | 77 | 1015.5 |
| 20260508084558 | 23 | 64 | 0.0 | 0.0 | 0.00 | 0.00 | 0.00 | 76 | 1015.3 |
| 20260508083053 | 23 | 61 | 0.0 | 0.0 | 0.00 | 0.00 | 0.00 | 76 | 1015.1 |
| 20260508081555 | 23 | 65 | 0.0 | 3.2 | 0.00 | 0.00 | 0.00 | 75 | 1014.9 |
| 20260508080044 | 23 | 52 | 0.0 | 0.0 | 0.00 | 0.00 | 0.00 | 73 | 1014.8 |
| 20260508074540 | 24 | 83 | 0.0 | 4.8 | 0.00 | 0.00 | 0.00 | 72 | 1014.7 |
| 20260508073036 | 25 | 46 | 0.0 | 6.4 | 0.00 | 0.00 | 0.00 | 70 | 1014.5 |
| 20260508071531 | 25 | 91 | 0.0 | 12.9 | 0.00 | 0.00 | 0.00 | 69 | 1014.4 |
| 20260508070027 | 26 | 61 | 1.6 | 12.9 | 0.00 | 0.00 | 0.00 | 66 | 1014.2 |
| 20260508064546 | 26 | 133 | 1.6 | 11.3 | 0.00 | 0.00 | 0.00 | 64 | 1014.0 |
| 20260508063021 | 26 | 89 | 1.6 | 12.9 | 0.00 | 0.00 | 0.00 | 62 | 1013.9 |
| 20260508061517 | 27 | 73 | 3.2 | 12.9 | 0.00 | 0.00 | 0.00 | 61 | 1013.8 |
| 20260508060016 | 27 | 44 | 3.2 | 16.1 | 0.00 | 0.00 | 0.00 | 60 | 1013.7 |
| 20260508054520 | 27 | 98 | 3.2 | 19.3 | 0.00 | 0.00 | 0.00 | 59 | 1013.7 |
| 20260508053116 | 27 | 91 | 1.6 | 14.5 | 0.00 | 0.00 | 0.00 | 59 | 1013.6 |
| 20260508051519 | 27 | 43 | 1.6 | 22.5 | 0.00 | 0.00 | 0.00 | 59 | 1013.7 |
| 20260508050033 | 27 | 103 | 4.8 | 19.3 | 0.00 | 0.00 | 0.00 | 57 | 1013.8 |
| 20260508044523 | 27 | 75 | 3.2 | 14.5 | 0.00 | 0.00 | 0.00 | 58 | 1013.9 |
| 20260508043015 | 28 | 59 | 9.7 | 19.3 | 0.00 | 0.00 | 0.00 | 57 | 1013.9 |
| 20260508041510 | 28 | 131 | 1.6 | 17.7 | 0.00 | 0.00 | 0.00 | 55 | 1013.9 |
| 20260508040005 | 28 | 73 | 1.6 | 16.1 | 0.00 | 0.00 | 0.00 | 54 | 1014.1 |
| 20260508034501 | 28 | 62 | 1.6 | 12.9 | 0.00 | 0.00 | 0.00 | 54 | 1014.1 |
| 20260508033058 | 28 | 64 | 0.0 | 16.1 | 0.00 | 0.00 | 0.00 | 55 | 1014.2 |
| 20260508031602 | 28 | 131 | 1.6 | 14.5 | 0.00 | 0.00 | 0.00 | 55 | 1014.6 |
| 20260508030054 | 28 | 131 | 0.0 | 14.5 | 0.00 | 0.00 | 0.00 | 53 | 1014.7 |
| 20260508024543 | 28 | 151 | 3.2 | 16.1 | 0.00 | 0.00 | 0.00 | 55 | 1015.1 |
| 20260508023040 | 28 | 94 | 0.0 | 8.0 | 0.00 | 0.00 | 0.00 | 55 | 1015.2 |
| 20260508021534 | 28 | 129 | 0.0 | 14.5 | 0.00 | 0.00 | 0.00 | 57 | 1015.4 |
| 20260508020029 | 27 | 156 | 6.4 | 16.1 | 0.00 | 0.00 | 0.00 | 56 | 1015.6 |
| 20260508014525 | 27 | 145 | 1.6 | 12.9 | 0.00 | 0.00 | 0.00 | 56 | 1016.0 |
| 20260508013020 | 27 | 165 | 1.6 | 16.1 | 0.00 | 0.00 | 0.00 | 58 | 1016.2 |
| 20260508011519 | 27 | 106 | 1.6 | 14.5 | 0.00 | 0.00 | 0.00 | 59 | 1016.5 |
| 20260508010022 | 26 | 129 | 4.8 | 19.3 | 0.00 | 0.00 | 0.00 | 60 | 1016.7 |
| 20260508004506 | 26 | 182 | 3.2 | 19.3 | 0.00 | 0.00 | 0.00 | 59 | 1016.9 |
| 20260508003002 | 25 | 165 | 1.6 | 19.3 | 0.00 | 0.00 | 0.00 | 61 | 1017.0 |
| 20260508001600 | 25 | 180 | 1.6 | 17.7 | 0.00 | 0.00 | 0.00 | 61 | 1017.1 |
| 20260508000108 | 24 | 194 | 4.8 | 17.7 | 0.00 | 0.00 | 0.00 | 62 | 1017.0 |
| 20260507234549 | 24 | 196 | 6.4 | 16.1 | 0.00 | 0.00 | 0.00 | 63 | 1017.0 |
| 20260507233043 | 23 | 200 | 0.0 | 17.7 | 0.00 | 0.00 | 0.00 | 64 | 1016.9 |
| 20260507231545 | 23 | 182 | 0.0 | 17.7 | 0.00 | 0.00 | 0.00 | 65 | 1017.0 |